This demonstration page uses our WeatherBlox Daily Observations layout. Learn more.

38.89511, -77.03637

Hourly Observations for June 18, 2020

Temp ( °F °C ) Dew Point ( °F °C ) Humidity (%) Winds ( mph kmh ) Pressure ( in mb ) Visibility ( mi km ) Precip ( " mm )
12:41 am 00:41 Cloudy with Light Drizzle 68 20 66 18.9 93 93 ENE 12 19 30.08 1019 10 16.0934 0.001 0.001
12:52 am 00:52 Cloudy with Light Drizzle 68 20 66 18.9 93 93 E 10 17 30.08 1019 10 16.0934 0.001 0.001
12:59 am 00:59 Cloudy 68 20 66 18.9 93 93 E 10 17 30.09 1019 10 16.0934 0.001 0.001
1:24 am 01:24 Cloudy with Mist and Fog 68 20 66 18.9 93 93 E 10 17 30.09 1019 5 8.0467 0.001 0.001
1:52 am 01:52 Cloudy with Light Drizzle 68 20 66 18.9 93 93 E 8 13 30.08 1019 4 6.43736 0.001 0.001
2:31 am 02:31 Cloudy 68 20 66 18.9 93 93 E 12 19 30.08 1019 9 14.48406 0.001 0.001
2:52 am 02:52 Cloudy 68 20 66 18.9 93 93 ENE 8 13 30.07 1018 10 16.0934 0.001 0.001
3:30 am 03:30 Cloudy with Mist and Fog 68 20 66 18.9 93 93 ENE 8 13 30.07 1018 6 9.65604 0 0
3:42 am 03:42 Cloudy 68 20 67 19.4 96 96 ENE 6 9 30.07 1018 8 12.87472 0 0
3:47 am 03:47 Cloudy 68 20 66 19 94 94 ENE 7 11 30.07 1018 7 11.26538 0 0
3:52 am 03:52 Cloudy 68 20 66 18.9 93 93 ENE 7 11 30.07 1018 7 11.26538 0 0
4:22 am 04:22 Cloudy 68 20 66 18.9 93 93 ENE 7 11 30.07 1018 10 16.0934 0 0
4:36 am 04:36 Cloudy 68 20 66 18.9 93 93 ENE 7 11 30.07 1018 10 16.0934 0 0
4:48 am 04:48 Cloudy 68 20 66 19 94 94 ENE 8 13 30.07 1018 10 16.0934 0 0
4:52 am 04:52 Cloudy 68 20 66 18.9 93 93 ENE 8 13 30.07 1018 10 16.0934 0 0
5:17 am 05:17 Cloudy 68 20 66 18.9 93 93 NE 10 17 30.07 1018 10 16.0934 0 0
5:40 am 05:40 Cloudy 68 20 66 18.9 93 93 ENE 8 13 30.08 1019 10 16.0934 0 0
5:52 am 05:52 Cloudy 68 20 66 18.9 93 93 E 8 13 30.08 1019 10 16.0934 0 0
6:52 am 06:52 Cloudy 69 20.6 66 18.9 90 90 ENE 9 15 30.1 1019 7 11.26538 0 0
7:52 am 07:52 Cloudy 70 21.1 67 19.4 90 90 E 8 13 30.11 1020 9 14.48406 0 0
8:05 am 08:05 Cloudy 70 21.1 67 19.4 90 90 E 9 15 30.12 1020 10 16.0934 0 0
8:33 am 08:33 Cloudy 71 21.7 68 20 90 90 E 7 11 30.12 1020 10 16.0934 0 0
8:52 am 08:52 Cloudy 71 21.7 68 20 90 90 E 9 15 30.12 1020 10 16.0934 0 0
9:07 am 09:07 Cloudy 71 21.7 67 19.4 87 87 E 7 11 30.12 1020 10 16.0934 0 0
9:20 am 09:20 Cloudy 71 21.7 67 19.4 87 87 ESE 7 11 30.12 1020 10 16.0934 0 0
9:42 am 09:42 Cloudy 72 22.2 67 19.4 84 84 E 9 15 30.12 1020 10 16.0934 0 0
9:52 am 09:52 Cloudy 73 22.8 68 20 84 84 ESE 8 13 30.12 1020 10 16.0934 0 0
10:14 am 10:14 Cloudy 74 23.3 68 20 82 82 E 7 11 30.12 1020 10 16.0934 0 0
10:52 am 10:52 Mostly Cloudy 76 24.4 68 20 77 77 E 8 13 30.12 1020 10 16.0934 0 0
11:52 am 11:52 Mostly Cloudy 76 24.4 66 18.9 72 72 ENE 7 11 30.12 1020 10 16.0934 0 0
12:52 pm 12:52 Mostly Cloudy 79 26.1 68 20 69 69 ESE 7 11 30.11 1020 10 16.0934 0 0
1:52 pm 13:52 Mostly Cloudy 77 25 66 18.9 69 69 E 9 15 30.11 1020 10 16.0934 0 0
2:52 pm 14:52 Mostly Cloudy 80 26.7 67 19.4 64 64 SSE 5 7 30.1 1019 10 16.0934 0.001 0.001
3:52 pm 15:52 Mostly Cloudy 81 27.2 62 16.7 53 53 ESE 5 7 30.08 1019 10 16.0934 0 0
4:52 pm 16:52 Mostly Cloudy 81 27.2 64 17.8 57 57 SE 7 11 30.07 1018 10 16.0934 0 0
5:52 pm 17:52 Mostly Cloudy 80 26.7 65 18.3 60 60 ESE 13 20 30.06 1018 10 16.0934 0 0
6:52 pm 18:52 Mostly Cloudy 78 25.6 65 18.3 64 64 SSE 13 20 30.07 1018 10 16.0934 0 0
7:52 pm 19:52 Mostly Cloudy 77 25 64 17.8 64 64 S 10 17 30.08 1019 10 16.0934 0 0
8:52 pm 20:52 Mostly Cloudy 76 24.4 65 18.3 69 69 SSE 7 11 30.08 1019 10 16.0934 0 0
9:52 pm 21:52 Cloudy 75 23.9 64 17.8 69 69 SSE 6 9 30.1 1019 10 16.0934 0 0
10:52 pm 22:52 Cloudy 74 23.3 65 18.3 74 74 S 10 17 30.1 1019 10 16.0934 0 0
11:52 pm 23:52 Cloudy 73 22.8 66 18.9 79 79 S 9 15 30.11 1020 10 16.0934 0 0

Powered by AerisWeather